Location: J�gun
(43.7578°N, 0.4595°E)
Time: 17:57:53
(UTC+00:00)

Daily predictions for brighter satellites

Satellite Brightness Start Highest point End
(mag) Time Altitude Azimuth Time Altitude Azimuth Time Altitude Azimuth
Ariane Rocket 3.3 18:50:40 10° SE 18:55:32 49° ENE 19:00:24 10° N
STARLINK-1106 3.8 18:52:27 10° NW 18:56:34 61° NNE 19:00:40 10° ESE
Abrixas rocket 2.3 18:54:17 10° WSW 18:57:13 63° NNW 19:00:10 10° ENE
Cosmos 1544 Rocket 3.6 18:53:55 10° S 18:58:20 86° E 19:02:48 10° N
Aureole 2 Rocket 3.5 18:57:06 10° N 19:00:08 27° ENE 19:03:06 10° ESE
STARLINK-1112 3.8 18:57:26 10° NW 19:01:34 65° NNE 19:05:41 10° ESE
ATLAS 2AS CENTAUR R/B 4.1 18:55:40 10° NNW 19:02:11 28° NNE 19:08:16 10° E
Cosmos 1943 4.1 18:57:41 10° SSE 19:02:17 26° ESE 19:06:55 10° NE
ISS -3.3 19:00:46 10° NW 19:04:04 50° NNE 19:07:16 10° ESE
STARLINK-1128 3.7 19:02:25 10° NW 19:06:34 71° NNE 19:10:37 10° ESE
SJ-11-01 4.3 19:03:29 10° SSE 19:08:09 72° ENE 19:12:53 10° N
USA 234 4.0 19:03:24 10° ENE 19:08:57 29° SE 19:14:28 10° S
HJ-1C 3.5 19:05:41 10° S 19:09:02 81° WSW 19:12:25 10° NNW
CSL-04 Rocket 4.4 19:04:40 10° S 19:09:51 55° W 19:15:03 10° NNW
STARLINK-1113 3.6 19:07:23 10° NW 19:11:32 76° NNE 19:15:23 12° ESE
SPOT 3 Rocket 4.4 19:07:37 10° SE 19:12:08 31° ENE 19:16:39 10° N
STARLINK-1119 3.6 19:12:21 10° NW 19:16:31 82° NE 19:20:11 13° ESE
SJ-6B 3.4 19:14:28 10° SE 19:18:20 42° ENE 19:22:15 10° N
Cosmos 1758 Rocket 4.4 19:14:47 10° NNE 19:18:38 30° ENE 19:22:13 11° SE
SeaSat 1 3.8 19:14:15 10° NNE 19:18:54 43° NW 19:23:32 10° SW
STARLINK-1114 3.6 19:17:20 10° NW 19:21:30 88° NE 19:24:58 14° SE
SL-16 R/B 3.3 19:17:52 10° SW 19:23:21 49° WNW 19:28:51 10° NNE
SL-14 R/B 4.3 19:20:02 10° NNW 19:23:57 49° W 19:27:48 10° S
STARLINK-1130 (DARKSAT) 3.6 19:22:18 10° NW 19:26:28 85° SW 19:29:44 16° SE
Cosmos 1818 4.2 19:22:22 10° S 19:27:11 34° ESE 19:32:02 10° NE
CZ-2C R/B 2.9 19:22:57 10° SSE 19:27:54 72° ENE 19:32:41 10° N
Cosmos 1606 Rocket 4.5 19:24:26 10° SSE 19:28:12 28° E 19:32:00 10° NNE
Cosmos 1758 3.6 19:24:50 10° SSW 19:28:55 74° W 19:33:02 10° N
MOS 1 4.3 19:23:21 10° SSE 19:28:58 74° ENE 19:34:38 10° N
STARLINK-1084 3.6 19:27:17 10° WNW 19:31:27 79° SW 19:34:31 17° SE
H-2A R/B 4.3 19:24:06 10° W 19:32:59 18° SW 19:36:36 10° S
Cosmos 2228 3.8 19:30:32 10° SSE 19:34:16 30° E 19:38:01 10° NNE
CZ-4 R/B 4.4 19:33:28 10° WSW 19:35:30 14° W 19:37:33 10° WNW
SL-24 R/B 4.3 19:32:09 10° NNE 19:36:09 39° E 19:39:44 10° SSE
CZ-2C R/B 3.3 19:31:53 10° NE 19:36:24 30° E 19:40:54 10° SSE
STARLINK-1098 3.7 19:32:17 10° WNW 19:36:25 73° SW 19:39:19 19° SE
Cosmos 2084 Rocket 3.7 19:32:04 10° NW 19:36:32 74° SW 19:40:26 13° SSE
Cosmos 1656 Rocket 4.4 19:31:39 10° N 19:36:52 36° NE 19:40:14 19° ESE
Meteor 1-21 Rocket 4.1 19:32:45 10° N 19:38:19 75° E 19:43:50 10° SSE
Cosmos 1992 Rocket 3.9 19:33:27 10° NNW 19:38:41 73° ENE 19:43:32 12° SSE
Meteor 2-15 Rocket 4.5 19:34:46 10° S 19:40:51 87° W 19:46:57 10° N
ARGOS 3.1 19:35:31 10° SSE 19:40:55 87° ENE 19:46:20 10° NNW
STARLINK-1123 3.8 19:37:16 10° WNW 19:41:24 67° SW 19:44:06 20° SE
MetOp-A 4.3 19:38:31 13° SE 19:43:06 52° ENE 19:48:19 10° N
SL-4 R/B 2.3 19:40:08 10° SSW 19:43:09 30° SE 19:43:44 28° ESE
BREEZE-M DEB (TANK) 4.4 19:37:14 10° WNW 19:44:01 46° N 19:45:58 20° ENE
COSMOS 2455 4.4 19:40:41 10° N 19:45:05 20° NE 19:48:18 14° ENE
Cosmos 1603 3.6 19:40:01 10° SSW 19:45:37 75° ESE 19:51:15 10° NNE
USA 186 2.3 19:42:44 10° S 19:46:05 61° W 19:49:22 10° NNW
STARLINK-1097 3.9 19:42:15 10° WNW 19:46:21 61° SW 19:48:52 22° SE
Cosmos 1726 2.0 19:42:52 10° S 19:46:33 64° E 19:50:16 10° NNE
Cosmos 1340 Rocket 4.3 19:47:47 19° ENE 19:47:47 19° ENE 19:50:04 10° NE
H-2A R/B 2.5 19:44:32 10° S 19:49:46 65° WSW 19:54:54 10° NNW
STARLINK-1099 4.1 19:47:16 10° WNW 19:51:20 56° SW 19:53:40 23° SSE
Meteor 1-16 Rocket 4.1 19:47:17 10° S 19:52:34 64° E 19:58:00 10° NNE
Resurs 1-3 3.8 19:51:24 23° SE 19:53:55 53° ENE 19:58:11 10° N
Cosmos 1328 4.3 19:50:26 10° N 19:54:14 40° ENE 19:55:27 31° ESE
STARLINK-1104 4.2 19:52:16 10° WNW 19:56:18 51° SW 19:58:27 24° SSE
Cosmos 2184 Rocket 3.9 19:52:24 10° N 19:58:44 77° E 20:04:58 10° SSE
STARLINK-1144 4.3 19:57:16 10° WNW 20:01:15 46° SW 20:03:14 25° SSE
Meteor 2-10 4.1 19:56:45 10° S 20:02:08 90° WSW 20:07:46 10° N
Cosmos 1703 3.3 20:01:50 10° N 20:05:44 57° E 20:06:51 40° SE
STARLINK-1103 4.5 20:02:16 10° WNW 20:06:12 42° SW 20:08:00 26° S
Cosmos 1953 3.2 20:02:34 10° SSW 20:06:25 50° W 20:10:19 10° N
Cosmos 2251 Rocket 4.2 20:03:32 10° SW 20:08:48 57° WNW 20:14:07 10° NNE
DMSP B5D2-2 3.9 20:05:45 10° NNE 20:10:59 73° ESE 20:16:12 10° S
Resurs 01 Rocket 1.6 20:12:28 40° SE 20:13:51 60° ENE 20:18:11 10° N
Cosmos 2058 Rocket 3.3 20:18:19 46° ESE 20:18:57 50° E 20:23:20 10° NNE
Cosmos 1437 3.4 20:16:09 10° NNW 20:19:06 49° W 20:19:45 40° SW
Cosmos 2154 Rocket 3.9 20:14:15 10° N 20:20:37 73° E 20:24:20 26° SSE
NOSS 3-4 (A) 4.1 20:14:45 10° NNW 20:21:37 57° NE 20:24:57 33° ESE
NOSS 3-4 (C) 4.1 20:14:52 10° NNW 20:21:43 56° NE 20:25:02 33° ESE
Cosmos 2369 Rocket 2.9 20:17:39 10° NW 20:23:08 51° WSW 20:27:18 17° S
Nadezhda 1 Rocket 4.0 20:19:36 10° S 20:26:01 86° E 20:32:25 10° N
SL-8 R/B 3.7 20:22:02 10° WNW 20:26:48 69° SSW 20:27:50 52° SSE
CZ-2C R/B 4.4 20:22:25 10° N 20:27:04 56° WNW 20:31:36 10° SSW
Cosmos 1943 Rocket 3.6 20:23:48 10° NW 20:28:44 34° WSW 20:33:41 10° SSW
Cosmos 1908 3.2 20:27:24 37° SSW 20:28:51 79° W 20:32:45 10° N
Meteor 1-11 4.1 20:26:16 10° N 20:32:05 81° E 20:34:22 38° SSE
Abrixas rocket 3.6 20:30:27 10° WNW 20:32:54 30° NNW 20:32:54 30° NNW
SL-24 R/B - RUBIN 2 4.2 20:31:16 10° SSW 20:36:34 56° ESE 20:42:36 10° NE
Cosmos 1726 Rocket 3.9 20:34:23 18° SSW 20:37:36 65° W 20:42:02 10° N
SPOT 5 4.5 20:39:21 18° NE 20:39:21 18° NE 20:41:23 10° NNE
ISS -1.9 20:37:54 10° W 20:40:16 24° WSW 20:40:16 24° WSW
Cosmos 1190 Rocket 3.9 20:40:52 43° S 20:42:32 70° ESE 20:47:49 10° NNE
Cosmos 1943 4.1 20:40:34 10° SW 20:46:01 48° WNW 20:51:32 10° NNE
Spot 2 Rocket 3.4 20:46:22 64° ESE 20:46:48 67° ENE 20:51:53 10° N
Aureole 1 Rocket 4.3 20:41:21 10° SSW 20:49:21 85° WNW 20:55:45 10° NNE
Cosmos 1140 Rocket 3.3 20:51:23 72° ESE 20:51:23 72° ESE 20:56:34 10° NNE
USA 234 3.2 20:45:50 10° NE 20:52:24 83° NW 20:58:56 10° SW
ATLAS 2AS CENTAUR R/B 2.7 20:46:38 10° NW 20:54:16 87° NE 20:56:14 52° SE
MetOp-B 4.0 20:57:15 65° S 20:58:05 86° WSW 21:03:29 10° NNW
BREEZE M DEB (TANK) 4.5 21:02:08 36° ENE 21:02:08 36° ENE 21:09:15 10° ENE
Terra 3.4 21:07:37 25° NE 21:07:37 25° NE 21:10:14 10° N
Cosmos 921 Rocket 3.9 21:06:42 10° NNW 21:09:39 45° NNW 21:09:39 45° NNW
Cosmos 407 Rocket 4.1 21:09:48 12° SW 21:14:22 53° WNW 21:19:24 10° NNE
SPOT 1/Viking Rocket 3.6 21:17:02 70° NNE 21:17:02 70° NNE 21:21:42 10° NNW
CZ-2C R/B 4.0 21:12:03 10° N 21:16:43 36° WNW 21:21:24 10° SW
Cosmos 1340 Rocket 4.5 21:23:17 32° WNW 21:23:18 32° WNW 21:26:58 10° N
ERS-1 Rocket 3.5 21:27:58 52° N 21:27:58 52° N 21:31:48 10° N
COSMOS 2455 2.8 21:25:49 10° NNW 21:31:27 78° NNW 21:31:27 78° NNW
Cosmos 2341 Rocket 4.4 21:26:04 10° NNW 21:32:18 58° W 21:33:32 50° SW
Cosmos 1980 Rocket 4.4 21:31:11 10° NNE 21:33:49 13° NE 21:33:52 13° NE
Resurs 01 Rocket 4.2 21:50:02 13° W 21:50:43 14° W 21:52:56 10° WNW
Cosmos 2218 Rocket 4.2 21:46:52 10° NNW 21:52:40 63° WNW 21:52:40 63° WNW
ATLAS 5 CENTAUR R/B 4.3 22:02:16 13° NNE 22:02:16 13° NNE 22:02:56 10° NNE
Terra 4.3 22:46:28 18° NW 22:46:28 18° NW 22:48:01 10° NNW
Cosmos 1697 Rocket 4.3 22:45:53 10° NNW 22:48:42 30° NNW 22:48:42 30° NNW
Mayak 2.0 22:49:49 10° N 22:49:57 11° N 22:49:57 11° N
SL-16 R/B 4.4 22:57:54 10° N 23:00:33 17° NNE 23:00:33 17° NNE
CZ-4C R/B 3.6 22:56:55 10° NNW 23:02:43 47° NNE 23:02:43 47° NNE
Cosmos 2322 Rocket 4.5 23:09:14 10° N 23:11:48 17° NNE 23:11:48 17° NNE
Cosmos 1980 Rocket 4.1 23:13:20 10° NNW 23:15:38 25° NNW 23:15:38 25° NNW
Cosmos 2344 4.4 23:28:32 10° NW 23:38:18 80° NE 23:38:51 79° E
Cosmos 2082 Rocket 4.3 23:44:34 21° NNE 23:44:34 21° NNE 23:46:27 10° NNE
